FW7447 Weather Reports


Display with metric or nautical units.
time (UTC)temp
F
wind
direction
speed
MPH
gust
MPH
rain 1hr
in
rain 24hr
in
rain mn
in
humidity
%
barometer
mb
20260503221540 71 182 2.0 6.0 0.00 0.00 0.00 28 1015.3
20260503220048 70 142 1.0 5.0 0.00 0.00 0.00 29 1015.4
20260503214544 70 143 3.0 5.0 0.00 0.00 0.00 28 1015.5
20260503213043 69 279 0.0 6.0 0.00 0.00 0.00 31 1015.7
20260503211539 69 136 4.0 11.0 0.00 0.00 0.00 29 1015.9
20260503210047 68 154 4.0 10.0 0.00 0.00 0.00 30 1016.2
20260503204545 69 252 5.0 9.0 0.00 0.00 0.00 30 1016.2
20260503203045 68 175 3.0 8.0 0.00 0.00 0.00 33 1016.6
20260503201556 68 112 2.0 9.0 0.00 0.00 0.00 37 1016.8
20260503200040 68 244 4.0 14.0 0.00 0.00 0.00 34 1017.0
20260503194536 68 174 4.0 11.0 0.00 0.00 0.00 36 1017.3
20260503193046 67 188 3.0 11.0 0.00 0.00 0.00 38 1017.4
20260503191544 66 340 3.0 9.0 0.00 0.00 0.00 37 1017.6
20260503190044 66 225 4.0 14.0 0.00 0.00 0.00 35 1017.9
20260503184558 66 280 2.0 8.0 0.00 0.00 0.00 35 1018.0
20260503183050 65 164 3.0 8.0 0.00 0.00 0.00 35 1018.2
20260503181550 64 233 5.0 11.0 0.00 0.00 0.00 36 1018.5
20260503180044 64 189 2.0 10.0 0.00 0.00 0.00 38 1018.6
20260503174542 64 148 4.0 9.0 0.00 0.00 0.00 35 1018.8
20260503173039 63 153 2.0 8.0 0.00 0.00 0.00 35 1018.9
20260503171607 62 205 3.0 9.0 0.00 0.00 0.00 37 1019.2
20260503081541 41 286 1.0 2.0 0.00 0.00 0.00 78 1017.5
20260503071558 41 286 0.0 3.0 0.00 0.00 0.00 78 1017.2
20260503054554 45 284 2.0 4.0 0.00 0.00 0.00 67 1017.0
20260503053041 44 239 0.0 3.0 0.00 0.00 0.00 71 1017.0
20260503051539 43 239 1.0 3.0 0.00 0.00 0.00 74 1017.0
20260503050039 43 0 0.0 4.0 0.00 0.00 0.00 74 1016.8
20260503044551 44 0 0.0 0.0 0.00 0.00 0.00 73 1016.7
20260503043048 44 0 0.0 3.0 0.00 0.00 0.00 72 1016.6
20260503041540 44 0 0.0 1.0 0.00 0.00 0.00 73 1016.5
20260503040039 44 0 0.0 2.0 0.00 0.00 0.00 72 1016.3
20260503034547 45 0 0.0 1.0 0.00 0.00 0.00 71 1016.0
20260503033043 45 0 0.0 1.0 0.00 0.00 0.00 69 1016.0
20260503031544 46 0 0.0 2.0 0.00 0.00 0.00 67 1016.0
20260503030040 47 0 0.0 0.0 0.00 0.00 0.00 66 1015.8
20260503024546 48 0 0.0 0.0 0.00 0.00 0.00 63 1015.7
20260503023049 49 239 1.0 3.0 0.00 0.00 0.00 62 1015.5
20260503021550 50 0 0.0 3.0 0.00 0.00 0.00 57 1015.4
20260503020048 50 0 1.0 2.0 0.00 0.00 0.00 57 1015.3
20260503014539 51 263 0.0 2.0 0.00 0.00 0.00 56 1015.1
20260503013041 52 263 1.0 3.0 0.00 0.00 0.00 52 1014.9
20260503011545 54 0 1.0 4.0 0.00 0.00 0.00 49 1014.9
20260503010111 54 278 1.0 9.0 0.00 0.00 0.00 46 1014.4
20260503004546 55 314 3.0 9.0 0.00 0.00 0.00 46 1014.2
20260503003044 56 274 1.0 4.0 0.00 0.00 0.00 45 1014.0
20260503001534 57 298 2.0 6.0 0.00 0.00 0.00 44 1013.9
20260503000100 58 350 4.0 15.0 0.00 0.00 0.00 42 1013.6
20260502234557 59 293 5.0 14.0 0.00 0.00 0.00 41 1013.3
20260502233044 59 343 5.0 11.0 0.00 0.00 0.00 40 1013.1
20260502231539 59 317 6.0 13.0 0.00 0.00 0.00 39 1012.9
20260502230048 59 295 4.0 15.0 0.00 0.00 0.00 41 1012.8
20260502224548 60 275 5.0 13.0 0.00 0.00 0.00 39 1012.8
20260502223044 60 342 5.0 14.0 0.00 0.00 0.00 38 1012.6